Temperature
14 14 13 13 13 13 12 12 12 12 12 12 11 12 12 12 12 11 11 11 11 12 12 12 11 11 12 12 12 12 12 12 13 13 14 13 13 13 14 14 14 15 15
14 14 14 13 13 13 13 12 12 12 12 12 12 12 12 12 12 11 11 11 11 11 11 11 12 12 12 12 12 12 12 12 12 13 13 13 13 13 13 13 14 14 15
15 14 14 14 14 13 13 13 13 12 12 12 12 12 12 12 12 11 12 12 12 11 11 11 11 11 11 12 12 12 12 12 12 12 13 13 13 13 13 13 13 14 14
15 15 14 14 14 14 13 13 13 13 13 12 12 12 12 12 12 12 12 12 12 12 11 11 11 11 11 11 11 12 12 12 12 12 12 12 12 12 13 13 13 13 13
15 15 15 15 14 14 14 14 14 13 13 13 13 12 12 12 12 12 12 12 12 12 12 11 11 12 12 12 11 11 11 12 12 12 12 12 12 12 12 12 12 13 13
16 15 15 15 15 15 14 14 14 14 14 13 13 13 13 12 13 13 12 12 12 12 12 11 11 11 12 12 12 12 12 11 11 11 12 12 12 12 12 12 12 12 12
16 16 15 16 15 15 15 15 15 14 14 14 14 13 13 13 13 13 13 12 12 12 12 12 11 11 12 11 11 12 12 12 12 11 11 12 12 12 12 12 12 12 12
16 16 16 16 16 16 16 15 15 15 14 14 14 14 14 13 13 13 13 13 12 12 12 12 12 11 11 11 11 11 11 11 11 11 11 11 11 11 11 12 12 12 12
17 16 16 16 16 16 16 16 15 15 15 14 14 14 14 13 13 13 13 12 12 12 12 12 12 12 12 12 11 11 11 11 11 12 12 12 12 12 12 12 12 11 12
17 17 16 16 16 16 16 16 15 15 15 15 14 14 14 13 13 13 13 13 12 12 12 12 12 12 12 12 11 11 11 11 11 11 11 11 11 12 12 12 12 11 11
17 17 17 17 17 16 16 16 15 15 15 14 14 14 14 13 13 13 13 13 12 12 12 12 12 12 12 12 12 11 11 11 11 11 11 11 11 11 11 11 11 11 11
17 17 17 17 17 16 16 16 15 15 14 14 13 13 13 13 13 13 13 13 13 12 12 12 12 12 12 12 12 12 12 11 11 11 11 11 11 11 11 11 11 11 11
17 17 17 17 16 16 15 15 14 14 13 13 13 13 12 12 12 13 13 13 13 12 12 12 12 12 12 11 11 11 11 11 11 11 11 11 11 11 11 11 11 11 11
17 17 17 16 16 15 15 14 14 13 12 12 12 12 12 11 11 12 12 12 12 12 12 12 12 12 11 11 11 11 11 10 10 10 10 10 10 10 11 11 11 11 11
17 17 16 16 15 15 14 14 13 13 13 12 11 11 11 11 11 12 12 11 11 11 11 11 11 11 11 10 10 10 10 10 10 10 10 10 10 10 10 10 10 10 10
17 16 16 16 15 15 14 14 13 12 12 11 11 11 11 11 11 11 11 11 11 11 11 10 10 10 10 10 10 10 10 10 10 9 9 9 9 9 9 9 9 10 10
17 16 16 15 15 14 13 13 12 11 11 10 10 10 10 10 10 10 10 10 10 10 10 9 9 9 9 9 9 9 9 9 9 9 9 9 9 9 9 9 9 9 9
16 16 16 15 15 14 13 12 11 10 10 9 9 10 9 9 9 9 9 9 9 9 9 8 8 8 8 8 8 8 8 8 8 8 7 8 8 8 8 8 8 8 8
16 16 15 15 14 13 12 11 10 9 9 9 8 8 9 8 8 8 8 8 8 8 7 7 7 7 7 7 7 7 6 6 6 6 6 6 6 7 7 7 7 7 7
16 15 15 14 13 13 12 11 10 9 9 8 8 7 7 7 7 7 7 7 7 6 6 6 6 6 6 5 5 5 5 5 5 5 5 5 5 5 5 5 5 5 5
15 15 14 13 13 12 11 10 9 9 8 8 7 7 7 6 6 6 6 6 6 5 5 5 5 5 4 4 4 4 4 4 4 4 4 4 4 4 4 4 4 4 4
15 14 13 12 12 11 10 9 9 8 8 7 7 7 7 6 6 5 5 5 5 5 4 4 4 4 4 3 3 3 3 3 3 3 3 3 3 3 3 3 3 3 3
14 13 12 11 11 10 9 8 8 7 7 6 6 6 5 5 5 5 4 4 4 4 4 3 3 3 3 3 2 2 2 2 2 2 2 2 2 2 2 2 2 2 2
12 12 11 10 10 9 8 8 7 7 6 6 5 5 5 4 4 4 4 4 3 3 3 3 3 2 2 2 2 2 2 2 2 1 1 1 1 1 1 1 1 1 1
11 11 10 9 9 8 7 7 6 6 5 5 5 5 4 4 4 4 3 3 3 3 3 2 2 2 2 2 1 1 1 1 1 1 1 1 1 0 0 0 0 0 0
9 9 9 8 8 7 7 6 6 5 5 5 4 4 4 4 3 3 3 3 3 2 2 2 2 2 1 1 1 1 1 1 1 1 0 0 -0 -0 -0 -0 -0 -0 -0
Wind_Speed
7 6 5 5 4 4 4 3 3 3 3 2 2 3 3 2 2 2 3 3 3 2 2 3 3 3 3 3 3 4 4 4 6 6 4 4 5 5 4 5 5 6 7
7 6 6 5 5 5 4 3 3 3 3 2 2 3 2 2 3 3 3 3 3 3 3 3 3 2 3 3 3 4 4 4 5 7 6 5 5 5 5 6 5 5 7
7 7 6 6 6 5 4 4 4 3 3 3 2 3 2 2 2 3 3 3 3 3 3 3 3 3 3 3 3 4 4 4 5 6 6 5 5 5 5 6 6 5 7
8 8 7 7 6 6 5 4 4 4 4 3 3 3 3 3 3 3 3 3 3 2 2 3 3 3 3 3 3 4 4 5 5 5 6 5 5 5 5 5 5 5 6
10 9 8 7 7 6 5 5 5 5 5 4 4 4 4 4 3 4 4 4 4 3 3 3 2 3 5 5 4 4 4 4 5 5 5 5 5 4 4 4 6 6 6
11 10 9 8 8 7 7 6 6 6 6 5 6 5 5 4 1 4 7 5 4 4 4 3 2 2 2 3 4 5 6 6 6 5 6 6 6 5 5 5 6 6 5
12 11 9 9 8 8 7 7 7 7 7 7 7 6 7 5 4 6 7 7 6 5 5 4 3 2 3 4 3 5 5 5 7 8 8 7 7 6 6 7 6 7 7
12 11 10 9 9 8 8 8 8 8 7 7 7 7 7 6 6 7 7 8 7 6 6 5 5 4 3 5 6 5 5 4 5 7 7 7 7 7 7 8 8 8 8
13 11 10 10 9 8 8 9 8 7 7 7 7 8 8 7 7 7 8 7 7 7 6 5 5 5 0 4 6 6 6 4 4 6 7 8 8 9 8 7 7 6 7
12 11 9 8 8 8 8 7 6 6 7 7 7 8 8 8 5 7 9 7 7 6 5 5 3 5 2 4 6 6 6 5 5 5 6 8 7 6 6 7 7 6 6
11 9 8 8 7 6 6 5 5 6 6 7 7 7 7 7 6 7 8 7 7 7 5 5 3 4 4 5 7 6 6 7 7 6 5 5 5 5 4 5 5 5 6
10 9 8 7 6 5 5 4 4 4 5 6 6 6 5 5 5 5 7 9 9 7 6 5 2 4 4 5 5 4 6 7 6 5 5 5 5 5 5 5 5 6 7
11 10 8 7 6 4 4 4 3 3 4 4 4 4 3 3 2 5 7 8 8 7 5 1 2 3 4 5 3 4 6 5 4 5 5 5 5 5 6 5 6 6 7
12 11 9 8 7 5 3 2 2 1 2 2 2 2 2 2 2 2 3 4 6 7 5 4 5 3 3 2 2 3 3 3 4 5 5 5 5 5 5 5 5 5 6
12 10 9 8 7 6 5 3 2 3 3 2 1 2 3 2 5 7 4 2 2 2 3 3 3 2 2 1 2 2 3 3 3 4 5 5 6 6 6 5 5 6 6
12 11 9 8 7 7 7 7 10 8 10 10 8 5 3 4 6 6 6 5 5 3 2 2 2 1 1 2 3 3 3 4 5 5 5 5 5 6 6 6 6 6 7
13 12 9 9 9 8 8 8 7 7 8 10 10 9 8 7 7 7 9 10 8 4 3 3 3 3 3 3 3 3 4 4 4 4 5 5 6 5 6 6 6 6 7
13 12 11 9 9 9 8 7 7 7 6 5 7 9 9 9 9 7 4 4 7 6 5 5 4 4 4 3 3 4 4 4 4 5 5 5 6 6 6 6 6 7 8
13 11 11 10 9 9 8 8 7 7 6 5 5 6 6 6 8 7 4 5 6 5 5 5 4 4 4 4 4 4 4 4 5 5 5 6 6 6 6 7 7 8 8
13 14 13 11 11 10 9 8 8 7 7 6 5 4 4 3 4 5 5 5 5 4 4 4 4 3 3 3 3 3 4 4 5 5 5 6 6 6 7 8 8 9 8
13 15 16 12 11 11 10 9 9 8 7 6 5 4 2 3 4 4 4 4 3 3 3 2 2 2 2 3 3 4 5 5 5 6 6 7 7 7 8 8 9 9 9
14 15 14 13 12 11 10 10 9 8 9 8 7 6 3 3 3 3 3 2 2 2 1 1 1 2 2 3 4 5 5 6 6 7 8 8 8 9 9 9 10 10 10
15 16 15 13 12 12 11 10 10 9 9 8 7 6 5 4 3 2 2 1 1 0 1 2 3 3 4 4 5 6 6 7 7 9 9 10 10 10 10 11 12 13 12
16 16 15 14 13 13 12 11 10 10 9 8 7 6 5 4 3 3 2 2 2 3 3 4 4 6 7 7 7 7 7 8 10 10 12 12 12 12 12 12 13 14 14
16 16 15 14 14 13 12 12 11 10 9 8 7 6 5 5 4 3 3 3 4 4 5 5 5 6 8 9 9 9 8 10 11 12 12 12 14 14 14 15 14 15 15
16 16 14 13 13 12 12 11 10 10 9 7 7 6 5 4 4 4 3 4 4 5 5 5 7 8 10 10 9 10 11 12 13 14 13 12 14 14 15 14 17 16 17
Wind_Direction
218 224 232 234 242 245 253 262 270 280 278 289 304 313 324 330 333 337 325 326 316 312 294 295 291 293 281 275 269 261 254 256 266 277 277 279 276 279 277 274 269 265 255
215 221 229 228 230 239 234 240 254 267 281 283 292 298 313 322 330 327 321 319 320 317 309 299 292 289 287 281 273 263 257 256 263 275 280 282 277 281 282 282 278 271 270
208 219 224 224 227 232 230 230 245 251 260 259 257 278 296 305 308 302 303 309 312 311 312 310 306 295 289 282 269 267 265 261 259 268 279 284 279 279 285 279 274 274 273
204 216 222 222 224 228 229 232 239 241 246 256 259 267 279 289 292 295 302 299 300 298 293 296 301 301 300 295 279 271 267 266 263 266 272 274 276 281 280 281 281 274 272
207 215 221 223 221 223 226 229 235 238 240 243 253 260 267 276 293 305 301 295 297 294 283 282 300 330 335 312 303 294 278 270 268 269 270 271 272 276 277 281 281 287 280
208 215 215 219 218 220 227 227 230 234 240 239 246 254 261 262 271 283 286 285 288 287 287 284 269 246 257 267 289 302 301 285 281 270 269 269 273 272 272 272 278 279 276
208 213 212 216 219 224 225 227 230 233 235 238 243 248 254 250 220 247 258 278 282 289 292 290 285 283 274 287 260 239 251 251 265 278 279 280 283 285 282 277 274 274 272
208 211 212 214 220 222 224 228 231 234 233 237 241 245 250 246 218 240 247 254 264 270 271 277 276 273 282 305 296 290 289 279 267 263 275 284 290 293 287 282 280 277 274
207 209 211 214 218 222 225 231 233 234 237 238 238 241 248 244 207 226 244 254 255 260 260 262 270 271 79 293 283 289 292 287 235 235 268 281 293 287 281 274 268 266 273
205 206 208 213 217 221 226 233 231 231 241 247 244 244 248 254 204 214 241 252 255 256 253 247 229 265 299 274 276 286 291 300 301 275 250 246 260 256 242 259 269 269 274
196 196 198 203 211 217 223 226 232 238 247 252 254 249 248 254 223 211 231 250 256 257 253 247 230 185 245 262 275 287 308 309 295 291 291 291 288 285 277 269 268 266 269
179 184 187 192 197 198 205 220 232 241 247 253 257 257 253 246 247 222 226 244 271 261 256 255 224 163 225 251 270 317 313 292 281 285 290 294 300 299 298 294 281 269 264
174 176 179 178 178 183 191 203 220 235 254 264 263 267 270 273 239 215 234 240 244 249 255 24 86 175 229 231 220 280 285 277 286 291 296 301 304 304 305 297 288 280 277
176 175 174 175 169 163 161 177 200 238 257 266 282 291 299 297 310 308 267 232 213 223 231 173 170 188 236 287 266 251 279 309 309 302 305 308 307 303 298 299 297 298 291
174 173 172 170 164 155 135 92 100 67 36 2 353 339 330 330 4 350 316 292 261 220 193 182 187 191 214 249 295 326 334 331 319 317 315 315 315 314 312 311 302 298 293
175 174 170 166 161 154 141 115 68 76 75 62 46 26 57 43 26 35 47 49 56 82 159 163 147 111 40 8 360 359 6 3 352 343 337 333 330 327 323 323 318 310 307
178 172 169 168 165 164 161 155 143 116 93 75 63 56 55 54 59 62 70 72 67 77 100 90 80 66 53 39 29 22 15 8 358 356 355 350 342 335 330 328 327 326 321
176 168 166 167 167 168 168 167 164 162 152 124 89 71 68 67 63 56 58 96 78 70 73 74 69 59 50 41 32 22 14 8 5 2 360 356 352 345 342 340 337 336 326
171 168 167 164 164 163 162 161 160 159 152 144 135 113 100 100 87 62 53 79 81 78 75 72 66 58 49 39 30 21 13 4 0 356 356 351 347 342 340 337 333 332 326
169 160 160 161 161 161 162 162 161 160 156 153 147 136 137 135 103 89 79 78 81 79 76 72 63 51 39 28 15 2 355 353 350 348 346 342 339 336 333 331 329 327 324
164 162 163 163 165 164 164 164 162 161 158 152 140 113 59 125 110 101 93 87 82 79 71 60 52 33 9 352 342 336 334 334 335 333 332 330 328 325 322 320 319 319 318
165 164 169 167 164 165 164 163 162 160 158 154 146 143 163 156 132 125 117 108 97 82 59 19 360 353 339 330 326 323 321 322 324 324 322 319 317 314 313 312 314 314 314
166 164 165 164 163 158 162 163 163 163 163 163 161 162 168 165 160 160 159 159 175 263 294 299 302 305 309 312 312 310 310 315 318 317 313 309 308 306 306 305 305 305 305
166 165 163 163 163 165 167 166 167 168 169 169 171 174 177 180 188 196 215 235 256 269 279 286 290 295 299 303 302 302 310 322 320 312 308 304 301 299 299 298 298 298 298
166 165 164 164 165 167 168 168 170 172 175 179 182 185 190 198 208 221 239 253 268 277 285 289 291 295 301 303 304 310 339 340 324 314 307 299 296 294 294 293 293 294 294
165 164 164 165 166 168 169 171 174 176 179 183 187 192 199 209 222 236 249 262 274 282 288 291 296 302 304 303 313 329 330 320 315 311 306 298 294 291 292 292 292 292 291
Height
1508 1508 1508 1509 1508 1508 1507 1507 1506 1505 1504 1503 1502 1502 1501 1500 1499 1497 1496 1495 1494 1494 1493 1492 1492 1491 1492 1491 1491 1492 1492 1493 1493 1493 1493 1493 1492 1493 1493 1493 1493 1494 1495
1505 1506 1507 1507 1507 1507 1507 1506 1505 1505 1504 1503 1502 1501 1500 1499 1498 1497 1496 1495 1494 1493 1492 1492 1491 1490 1490 1490 1489 1490 1490 1490 1490 1490 1490 1490 1489 1489 1489 1489 1489 1489 1490
1503 1504 1505 1505 1506 1506 1506 1505 1504 1504 1503 1502 1501 1501 1500 1499 1497 1496 1495 1494 1493 1492 1491 1491 1490 1489 1488 1488 1488 1488 1488 1488 1487 1487 1487 1486 1486 1486 1485 1485 1485 1485 1485
1500 1502 1503 1504 1504 1504 1504 1504 1503 1503 1502 1502 1501 1500 1499 1498 1497 1496 1495 1494 1493 1492 1491 1490 1489 1488 1487 1487 1486 1486 1485 1485 1485 1484 1484 1483 1483 1482 1482 1482 1482 1482 1481
1498 1499 1500 1502 1502 1502 1502 1502 1501 1501 1501 1500 1499 1499 1498 1497 1496 1495 1494 1493 1492 1491 1490 1489 1488 1486 1485 1484 1484 1484 1483 1483 1482 1482 1481 1480 1480 1479 1479 1478 1478 1477 1477
1494 1496 1498 1499 1499 1500 1500 1500 1500 1500 1499 1499 1498 1497 1496 1495 1494 1493 1492 1492 1491 1490 1489 1488 1487 1485 1484 1482 1482 1481 1480 1480 1480 1479 1478 1478 1477 1476 1476 1475 1475 1474 1474
1491 1493 1495 1496 1497 1497 1498 1498 1498 1497 1497 1497 1496 1495 1494 1494 1492 1491 1490 1490 1490 1489 1488 1487 1486 1484 1483 1482 1481 1479 1478 1477 1477 1476 1476 1475 1474 1474 1473 1472 1472 1470 1470
1488 1490 1491 1492 1493 1494 1495 1495 1495 1495 1494 1494 1494 1493 1492 1491 1490 1489 1488 1488 1487 1487 1486 1485 1484 1483 1482 1480 1480 1479 1477 1476 1474 1473 1473 1472 1471 1470 1469 1469 1468 1466 1465
1484 1486 1488 1489 1490 1491 1491 1492 1492 1492 1491 1491 1490 1490 1489 1489 1488 1487 1486 1486 1485 1485 1484 1483 1482 1481 1479 1478 1477 1477 1475 1474 1472 1471 1470 1469 1468 1467 1466 1465 1464 1463 1462
1480 1482 1484 1485 1486 1487 1488 1488 1488 1488 1487 1487 1486 1486 1486 1485 1484 1484 1483 1483 1483 1483 1481 1481 1479 1478 1477 1476 1475 1475 1474 1473 1471 1470 1468 1467 1466 1464 1463 1462 1461 1460 1459
1476 1478 1480 1481 1482 1483 1484 1484 1484 1483 1483 1483 1483 1482 1481 1481 1480 1480 1479 1479 1480 1479 1479 1478 1477 1475 1475 1474 1473 1472 1471 1470 1468 1468 1467 1465 1464 1463 1461 1460 1458 1457 1456
1471 1474 1476 1477 1478 1479 1479 1480 1479 1479 1478 1478 1478 1478 1477 1476 1475 1475 1475 1475 1475 1475 1475 1475 1474 1473 1472 1471 1471 1470 1469 1467 1467 1466 1465 1463 1462 1461 1459 1457 1456 1454 1453
1467 1469 1472 1473 1474 1475 1476 1476 1475 1475 1475 1474 1474 1474 1473 1472 1471 1470 1470 1470 1470 1471 1471 1471 1471 1470 1470 1469 1468 1468 1467 1466 1465 1464 1463 1461 1460 1458 1456 1454 1453 1451 1450
1463 1465 1467 1469 1470 1471 1471 1472 1471 1471 1471 1470 1470 1469 1469 1468 1467 1466 1466 1466 1466 1466 1467 1467 1467 1467 1467 1467 1466 1465 1464 1464 1462 1461 1460 1458 1457 1455 1453 1452 1450 1448 1447
1458 1461 1463 1465 1466 1467 1467 1467 1467 1467 1467 1467 1466 1466 1465 1465 1464 1463 1462 1462 1463 1463 1463 1463 1464 1464 1464 1464 1464 1463 1462 1461 1460 1459 1457 1456 1454 1452 1451 1449 1447 1445 1444
1453 1456 1458 1460 1461 1463 1463 1463 1463 1464 1464 1463 1463 1463 1462 1461 1460 1459 1459 1459 1459 1460 1460 1461 1461 1461 1461 1461 1461 1460 1459 1458 1457 1456 1455 1453 1452 1450 1448 1446 1445 1443 1441
1448 1450 1453 1455 1457 1458 1459 1460 1460 1461 1461 1461 1461 1460 1460 1459 1458 1457 1457 1457 1457 1457 1458 1458 1459 1459 1459 1458 1458 1457 1456 1455 1454 1453 1452 1450 1449 1447 1445 1444 1442 1440 1438
1442 1445 1447 1450 1452 1454 1455 1456 1458 1459 1459 1459 1459 1458 1458 1457 1457 1456 1456 1456 1456 1456 1456 1456 1456 1456 1456 1456 1456 1455 1454 1453 1452 1451 1449 1448 1446 1444 1442 1440 1438 1437 1434
1435 1438 1441 1444 1446 1449 1451 1452 1454 1455 1456 1457 1457 1457 1457 1456 1456 1456 1455 1456 1455 1455 1455 1455 1455 1455 1455 1454 1454 1453 1452 1451 1450 1449 1447 1445 1443 1442 1440 1438 1436 1433 1431
1428 1432 1435 1438 1441 1444 1446 1448 1450 1452 1454 1455 1455 1456 1456 1456 1456 1456 1455 1455 1455 1455 1454 1454 1454 1453 1453 1453 1452 1451 1450 1449 1448 1447 1445 1443 1441 1439 1437 1435 1433 1430 1428
1420 1425 1429 1433 1436 1439 1441 1444 1446 1448 1450 1452 1453 1453 1453 1455 1455 1454 1454 1454 1454 1454 1454 1453 1453 1452 1451 1451 1450 1449 1448 1447 1446 1444 1442 1440 1438 1436 1434 1432 1429 1427 1424
1413 1417 1422 1426 1430 1433 1437 1440 1442 1445 1447 1448 1450 1450 1451 1453 1453 1453 1453 1453 1453 1453 1452 1452 1451 1450 1449 1448 1447 1446 1445 1444 1443 1441 1439 1437 1435 1432 1430 1428 1426 1423 1420
1406 1411 1416 1420 1424 1428 1432 1435 1438 1441 1443 1446 1447 1448 1449 1450 1451 1451 1451 1451 1451 1451 1450 1449 1449 1448 1447 1446 1444 1443 1442 1440 1438 1436 1434 1432 1430 1428 1426 1423 1421 1418 1416
1400 1405 1410 1414 1419 1423 1427 1431 1434 1438 1440 1443 1444 1446 1447 1448 1449 1449 1449 1449 1449 1448 1447 1446 1445 1444 1443 1442 1440 1439 1437 1435 1433 1431 1429 1426 1424 1422 1420 1417 1414 1412 1410
1394 1399 1404 1409 1414 1418 1423 1427 1431 1434 1437 1439 1441 1443 1444 1445 1446 1446 1446 1446 1445 1444 1444 1442 1441 1440 1439 1437 1436 1434 1431 1429 1427 1424 1422 1420 1417 1415 1413 1410 1407 1405 1402
1389 1394 1400 1405 1410 1414 1419 1423 1427 1430 1433 1435 1437 1439 1440 1441 1442 1442 1442 1442 1441 1440 1439 1438 1437 1435 1433 1431 1429 1427 1424 1422 1420 1417 1415 1412 1410 1407 1405 1402 1399 1397 1394